| time (UTC) | temp C | wind direction | speed KPH | gust KPH | rain 1hr cm | rain 24hr cm | rain mn cm | humidity % | barometer mb |
| 20260903013717 | 18 | 45 | 0.0 | 1.6 | 361.62 | 0.00 | 0.00 | 79 | 1020.7 |
| 20260903013218 | 18 | 122 | 0.0 | 4.8 | 361.62 | 0.00 | 0.00 | 78 | 1020.5 |
| 20260903011718 | 18 | 60 | 1.6 | 4.8 | 361.62 | 0.00 | 0.00 | 78 | 1020.0 |
| 20260903010717 | 18 | 73 | 1.6 | 4.8 | 361.62 | 0.00 | 0.00 | 77 | 1020.0 |
| 20260903010220 | 18 | 186 | 1.6 | 8.0 | 361.62 | 0.00 | 0.00 | 77 | 1020.1 |
| 20260903005717 | 18 | 152 | 1.6 | 11.3 | 361.62 | 0.00 | 0.00 | 77 | 1020.2 |
| 20260903004718 | 18 | 165 | 3.2 | 8.0 | 361.62 | 0.00 | 0.00 | 76 | 1020.3 |
| 20260903003717 | 18 | 4 | 0.0 | 9.7 | 361.62 | 0.00 | 0.00 | 76 | 1020.4 |
| 20260903003218 | 18 | 131 | 0.0 | 3.2 | 361.62 | 0.00 | 0.00 | 75 | 1020.4 |
| 20260903001720 | 18 | 249 | 3.2 | 4.8 | 361.62 | 0.00 | 0.00 | 74 | 1020.3 |
| 20260903001217 | 18 | 46 | 0.0 | 3.2 | 361.62 | 0.00 | 0.00 | 74 | 1020.4 |
| 20260903000717 | 18 | 73 | 0.0 | 1.6 | 361.62 | 0.00 | 0.00 | 74 | 1020.6 |
| 20260903000218 | 18 | 76 | 0.0 | 1.6 | 361.62 | 0.00 | 0.00 | 74 | 1020.5 |
| 20260902235717 | 18 | 0 | 0.0 | 0.0 | 361.62 | 0.00 | 0.00 | 74 | 1020.5 |
| 20260902235217 | 18 | 0 | 0.0 | 0.0 | 361.62 | 0.00 | 0.00 | 74 | 1020.7 |
| 20260902234724 | 18 | 103 | 0.0 | 1.6 | 361.62 | 0.00 | 0.00 | 74 | 1020.8 |
| 20260902234217 | 18 | 0 | 0.0 | 0.0 | 361.62 | 0.00 | 0.00 | 73 | 1020.9 |
| 20260902233717 | 18 | 0 | 0.0 | 0.0 | 361.62 | 0.00 | 0.00 | 73 | 1020.9 |
| 20260902233222 | 19 | 0 | 0.0 | 0.0 | 361.62 | 0.00 | 0.00 | 73 | 1021.0 |
| 20260902232217 | 19 | 0 | 0.0 | 0.0 | 361.62 | 0.00 | 0.00 | 71 | 1021.2 |
| 20260902231717 | 19 | 0 | 0.0 | 0.0 | 361.62 | 0.00 | 0.00 | 72 | 1021.2 |
| 20260902231217 | 20 | 0 | 0.0 | 0.0 | 361.62 | 0.00 | 0.00 | 72 | 1021.2 |
| 20260902230717 | 20 | 0 | 0.0 | 0.0 | 361.62 | 0.00 | 0.00 | 72 | 1021.4 |
| 20260902230218 | 20 | 0 | 0.0 | 0.0 | 361.62 | 0.00 | 0.00 | 70 | 1021.4 |
| 20260902225717 | 20 | 0 | 0.0 | 0.0 | 361.62 | 0.00 | 0.00 | 70 | 1021.4 |
| 20260902225217 | 20 | 0 | 0.0 | 0.0 | 361.62 | 0.00 | 0.00 | 69 | 1021.2 |
| 20260902224717 | 20 | 0 | 0.0 | 0.0 | 361.62 | 0.00 | 0.00 | 67 | 1021.2 |
| 20260902223717 | 21 | 0 | 0.0 | 0.0 | 361.62 | 0.00 | 0.00 | 68 | 1021.1 |
| 20260902223218 | 21 | 0 | 0.0 | 0.0 | 361.62 | 0.00 | 0.00 | 67 | 1021.2 |
| 20260902222717 | 21 | 0 | 0.0 | 0.0 | 361.62 | 0.00 | 0.00 | 65 | 1021.4 |
| 20260902222217 | 21 | 0 | 0.0 | 0.0 | 361.62 | 0.00 | 0.00 | 65 | 1021.5 |
| 20260902221717 | 21 | 0 | 0.0 | 0.0 | 361.62 | 0.00 | 0.00 | 66 | 1021.5 |
| 20260902220718 | 21 | 0 | 0.0 | 0.0 | 361.62 | 0.00 | 0.00 | 65 | 1021.7 |
| 20260902220220 | 21 | 0 | 0.0 | 0.0 | 361.62 | 0.00 | 0.00 | 63 | 1021.6 |
| 20260902215717 | 21 | 0 | 0.0 | 0.0 | 361.62 | 0.00 | 0.00 | 63 | 1021.5 |
| 20260902215217 | 21 | 28 | 0.0 | 3.2 | 361.62 | 0.00 | 0.00 | 62 | 1021.4 |
| 20260902214717 | 21 | 59 | 0.0 | 3.2 | 361.62 | 0.00 | 0.00 | 62 | 1021.3 |
| 20260902214217 | 21 | 37 | 0.0 | 0.0 | 361.62 | 0.00 | 0.00 | 61 | 1021.2 |
| 20260902213717 | 21 | 65 | 0.0 | 3.2 | 361.62 | 0.00 | 0.00 | 62 | 1021.2 |
| 20260902213217 | 21 | 59 | 0.0 | 3.2 | 361.62 | 0.00 | 0.00 | 61 | 1021.2 |
| 20260902212717 | 22 | 49 | 0.0 | 4.8 | 361.62 | 0.00 | 0.00 | 61 | 1021.1 |
| 20260902212217 | 22 | 73 | 1.6 | 4.8 | 361.62 | 0.00 | 0.00 | 61 | 1021.2 |
| 20260902211717 | 22 | 59 | 0.0 | 6.4 | 361.62 | 0.00 | 0.00 | 61 | 1021.2 |
| 20260902211217 | 22 | 59 | 0.0 | 3.2 | 361.62 | 0.00 | 0.00 | 62 | 1021.2 |
| 20260902210717 | 22 | 58 | 1.6 | 3.2 | 361.62 | 0.00 | 0.00 | 63 | 1021.2 |
| 20260902210217 | 22 | 0 | 0.0 | 0.0 | 361.62 | 0.00 | 0.00 | 63 | 1021.0 |
| 20260902205717 | 22 | 0 | 0.0 | 0.0 | 361.62 | 0.00 | 0.00 | 62 | 1020.9 |
| 20260902205217 | 22 | 0 | 0.0 | 0.0 | 361.62 | 0.00 | 0.00 | 60 | 1021.0 |
| 20260902204718 | 22 | 45 | 0.0 | 3.2 | 361.62 | 0.00 | 0.00 | 59 | 1021.1 |
| 20260902203717 | 22 | 60 | 0.0 | 3.2 | 361.62 | 0.00 | 0.00 | 59 | 1021.3 |
| 20260902203217 | 22 | 48 | 1.6 | 3.2 | 361.62 | 0.00 | 0.00 | 58 | 1021.5 |
| 20260902202717 | 22 | 101 | 1.6 | 3.2 | 361.62 | 0.00 | 0.00 | 59 | 1021.5 |
| 20260902202217 | 23 | 0 | 0.0 | 0.0 | 361.62 | 0.00 | 0.00 | 60 | 1021.6 |
| 20260902201717 | 23 | 60 | 0.0 | 3.2 | 361.62 | 0.00 | 0.00 | 58 | 1021.5 |
| 20260902200717 | 23 | 60 | 1.6 | 8.0 | 361.62 | 0.00 | 0.00 | 56 | 1021.6 |
| 20260902200217 | 23 | 108 | 1.6 | 4.8 | 361.62 | 0.00 | 0.00 | 56 | 1021.6 |
| 20260902195717 | 23 | 79 | 1.6 | 8.0 | 361.62 | 0.00 | 0.00 | 58 | 1021.8 |
| 20260902195217 | 23 | 108 | 1.6 | 3.2 | 361.62 | 0.00 | 0.00 | 59 | 1021.6 |
| 20260902194717 | 23 | 108 | 0.0 | 1.6 | 361.62 | 0.00 | 0.00 | 60 | 1021.7 |
| 20260902194216 | 23 | 62 | 0.0 | 4.8 | 361.62 | 0.00 | 0.00 | 60 | 1021.7 |
| 20260902193716 | 23 | 111 | 0.0 | 4.8 | 361.62 | 0.00 | 0.00 | 61 | 1021.8 |
| 20260902193217 | 23 | 32 | 0.0 | 0.0 | 361.62 | 0.00 | 0.00 | 61 | 1021.8 |
| 20260902192716 | 23 | 0 | 0.0 | 0.0 | 361.62 | 0.00 | 0.00 | 59 | 1022.0 |
| 20260902192216 | 23 | 0 | 0.0 | 0.0 | 361.62 | 0.00 | 0.00 | 58 | 1022.0 |
| 20260902191750 | 23 | 0 | 0.0 | 0.0 | 361.62 | 0.00 | 0.00 | 58 | 1022.0 |
| 20260902191742 | 23 | 0 | 0.0 | 0.0 | 361.62 | 0.00 | 0.00 | 65 | 1022.0 |
| 20260902191717 | 23 | 0 | 0.0 | 0.0 | 361.62 | 0.00 | 0.00 | 58 | 1022.0 |
| 20260902191216 | 23 | 103 | 0.0 | 1.6 | 361.62 | 0.00 | 0.00 | 58 | 1022.0 |
| 20260902190716 | 23 | 115 | 1.6 | 3.2 | 361.62 | 0.00 | 0.00 | 58 | 1022.0 |
| 20260902190217 | 23 | 58 | 1.6 | 3.2 | 361.62 | 0.00 | 0.00 | 57 | 1022.1 |
| 20260902185716 | 23 | 73 | 0.0 | 3.2 | 361.62 | 0.00 | 0.00 | 57 | 1022.0 |
| 20260902185216 | 23 | 56 | 0.0 | 4.8 | 361.62 | 0.00 | 0.00 | 57 | 1022.1 |
| 20260902184718 | 23 | 160 | 1.6 | 3.2 | 361.62 | 0.00 | 0.00 | 59 | 1022.0 |
| 20260902183716 | 23 | 37 | 4.8 | 3.2 | 361.62 | 0.00 | 0.00 | 58 | 1021.9 |
| 20260902183217 | 23 | 51 | 0.0 | 4.8 | 361.62 | 0.00 | 0.00 | 59 | 1021.9 |
| 20260902182216 | 23 | 42 | 1.6 | 6.4 | 361.62 | 0.00 | 0.00 | 59 | 1022.1 |
| 20260902181717 | 23 | 201 | 1.6 | 4.8 | 361.62 | 0.00 | 0.00 | 61 | 1021.9 |
| 20260902180717 | 23 | 69 | 0.0 | 4.8 | 361.62 | 0.00 | 0.00 | 62 | 1022.0 |
| 20260902180217 | 23 | 59 | 1.6 | 4.8 | 361.62 | 0.00 | 0.00 | 63 | 1022.0 |
| 20260902175717 | 23 | 0 | 1.6 | 3.2 | 361.62 | 0.00 | 0.00 | 62 | 1022.1 |
| 20260902175216 | 23 | 37 | 3.2 | 6.4 | 361.62 | 0.00 | 0.00 | 62 | 1022.1 |
| 20260902174717 | 23 | 0 | 0.0 | 0.0 | 361.62 | 0.00 | 0.00 | 65 | 1022.0 |
| 20260902174217 | 23 | 141 | 0.0 | 3.2 | 361.62 | 0.00 | 0.00 | 64 | 1022.1 |
| 20260902173716 | 23 | 42 | 0.0 | 4.8 | 361.62 | 0.00 | 0.00 | 63 | 1022.0 |
| 20260902173217 | 23 | 70 | 1.6 | 3.2 | 361.62 | 0.00 | 0.00 | 64 | 1022.1 |
| 20260902172216 | 23 | 110 | 0.0 | 4.8 | 361.62 | 0.00 | 0.00 | 63 | 1022.0 |
| 20260902171717 | 23 | 60 | 1.6 | 8.0 | 361.62 | 0.00 | 0.00 | 64 | 1022.0 |
| 20260902171216 | 23 | 62 | 4.8 | 6.4 | 361.62 | 0.00 | 0.00 | 61 | 1022.0 |
| 20260902170217 | 23 | 56 | 3.2 | 4.8 | 361.62 | 0.00 | 0.00 | 62 | 1022.1 |
| 20260902165716 | 23 | 0 | 0.0 | 0.0 | 361.62 | 0.00 | 0.00 | 68 | 1022.1 |
| 20260902165216 | 23 | 45 | 0.0 | 8.0 | 361.62 | 0.00 | 0.00 | 66 | 1022.2 |
| 20260902164719 | 23 | 100 | 1.6 | 3.2 | 361.62 | 0.00 | 0.00 | 67 | 1022.3 |
| 20260902164216 | 23 | 93 | 0.0 | 3.2 | 361.62 | 0.00 | 0.00 | 68 | 1022.3 |
| 20260902163716 | 23 | 52 | 0.0 | 4.8 | 361.62 | 0.00 | 0.00 | 68 | 1022.4 |
| 20260902163217 | 23 | 58 | 3.2 | 4.8 | 361.62 | 0.00 | 0.00 | 68 | 1022.4 |
| 20260902162716 | 23 | 114 | 3.2 | 3.2 | 361.62 | 0.00 | 0.00 | 69 | 1022.6 |
| 20260902162216 | 22 | 49 | 3.2 | 4.8 | 361.62 | 0.00 | 0.00 | 71 | 1022.7 |
| 20260902161718 | 22 | 155 | 0.0 | 6.4 | 361.62 | 0.00 | 0.00 | 73 | 1022.6 |
| 20260902161216 | 22 | 20 | 1.6 | 3.2 | 361.62 | 0.00 | 0.00 | 77 | 1022.7 |
| 20260902160716 | 22 | 35 | 1.6 | 3.2 | 361.62 | 0.00 | 0.00 | 74 | 1022.8 |
| 20260902160217 | 21 | 166 | 0.0 | 4.8 | 361.62 | 0.00 | 0.00 | 77 | 1022.9 |
| 20260902155716 | 21 | 0 | 0.0 | 0.0 | 361.62 | 0.00 | 0.00 | 78 | 1022.9 |
| 20260902155216 | 21 | 0 | 0.0 | 0.0 | 361.62 | 0.00 | 0.00 | 77 | 1022.9 |
| 20260902154717 | 21 | 84 | 0.0 | 3.2 | 361.62 | 0.00 | 0.00 | 80 | 1022.9 |
| 20260902154216 | 21 | 141 | 0.0 | 4.8 | 361.62 | 0.00 | 0.00 | 79 | 1022.9 |
| 20260902153716 | 21 | 145 | 1.6 | 9.7 | 361.62 | 0.00 | 0.00 | 80 | 1023.0 |
| 20260902153217 | 21 | 148 | 4.8 | 9.7 | 361.62 | 0.00 | 0.00 | 81 | 1023.1 |
| 20260902152716 | 21 | 203 | 3.2 | 8.0 | 361.62 | 0.00 | 0.00 | 82 | 1023.3 |
| 20260902152216 | 20 | 42 | 1.6 | 4.8 | 361.62 | 0.00 | 0.00 | 84 | 1023.1 |
| 20260902151717 | 20 | 58 | 1.6 | 3.2 | 361.62 | 0.00 | 0.00 | 86 | 1023.2 |
| 20260902151216 | 20 | 62 | 1.6 | 3.2 | 361.62 | 0.00 | 0.00 | 86 | 1023.3 |
| 20260902150716 | 20 | 0 | 0.0 | 0.0 | 361.62 | 0.00 | 0.00 | 88 | 1023.3 |
| 20260902150217 | 20 | 0 | 0.0 | 0.0 | 361.62 | 0.00 | 0.00 | 90 | 1023.2 |
| 20260902145716 | 20 | 195 | 0.0 | 9.7 | 361.62 | 0.00 | 0.00 | 90 | 1023.1 |
| 20260902144719 | 20 | 0 | 0.0 | 0.0 | 361.62 | 0.00 | 0.00 | 95 | 1023.3 |
| 20260902144216 | 20 | 0 | 0.0 | 0.0 | 361.62 | 0.00 | 0.00 | 96 | 1023.3 |
| 20260902143716 | 19 | 180 | 0.0 | 6.4 | 361.62 | 0.00 | 0.00 | 96 | 1023.3 |
| 20260902143217 | 19 | 197 | 4.8 | 8.0 | 361.62 | 0.00 | 0.00 | 96 | 1023.2 |
| 20260902142716 | 19 | 52 | 0.0 | 3.2 | 361.62 | 0.00 | 0.00 | 97 | 1023.1 |
| 20260902142216 | 19 | 0 | 0.0 | 0.0 | 361.62 | 0.00 | 0.00 | 97 | 1023.1 |
| 20260902141717 | 19 | 11 | 0.0 | 3.2 | 361.62 | 0.00 | 0.00 | 97 | 1022.9 |
| 20260902141217 | 19 | 66 | 0.0 | 4.8 | 361.62 | 0.00 | 0.00 | 98 | 1023.0 |
| 20260902140716 | 18 | 72 | 0.0 | 4.8 | 361.62 | 0.00 | 0.00 | 98 | 1023.0 |
| 20260902140217 | 18 | 0 | 0.0 | 0.0 | 361.62 | 0.00 | 0.00 | 98 | 1022.9 |
| 20260902135716 | 18 | 0 | 0.0 | 0.0 | 361.62 | 0.00 | 0.00 | 98 | 1022.8 |
| 20260902135216 | 18 | 0 | 0.0 | 0.0 | 361.62 | 0.00 | 0.00 | 98 | 1022.5 |
| 20260902134717 | 18 | 0 | 0.0 | 0.0 | 361.62 | 0.00 | 0.00 | 98 | 1022.3 |
| 20260902134216 | 18 | 0 | 0.0 | 0.0 | 361.62 | 0.00 | 0.00 | 98 | 1022.5 |
| 20260902133716 | 18 | 0 | 0.0 | 0.0 | 361.62 | 0.00 | 0.00 | 99 | 1022.5 |
| 20260902133217 | 18 | 0 | 0.0 | 0.0 | 361.62 | 0.00 | 0.00 | 98 | 1022.6 |
| 20260902132716 | 18 | 52 | 0.0 | 1.6 | 361.62 | 0.00 | 0.00 | 99 | 1022.5 |
| 20260902132216 | 18 | 53 | 0.0 | 3.2 | 361.62 | 0.00 | 0.00 | 98 | 1022.4 |
| 20260902131717 | 18 | 75 | 0.0 | 3.2 | 361.62 | 0.00 | 0.00 | 99 | 1022.5 |
| 20260902131216 | 17 | 115 | 0.0 | 6.4 | 361.62 | 0.00 | 0.00 | 99 | 1022.4 |
| 20260902130717 | 17 | 68 | 0.0 | 1.6 | 361.62 | 0.00 | 0.00 | 99 | 1022.5 |
| 20260902130217 | 17 | 0 | 0.0 | 0.0 | 361.62 | 0.00 | 0.00 | 99 | 1022.6 |
| 20260902125716 | 17 | 0 | 0.0 | 0.0 | 361.62 | 0.00 | 0.00 | 99 | 1022.6 |
| 20260902125216 | 17 | 0 | 0.0 | 0.0 | 361.62 | 0.00 | 0.00 | 99 | 1022.8 |
| 20260902124718 | 17 | 0 | 0.0 | 0.0 | 361.62 | 0.00 | 0.00 | 98 | 1022.8 |
| 20260902124216 | 17 | 0 | 0.0 | 0.0 | 361.62 | 0.00 | 0.00 | 99 | 1022.7 |
| 20260902123716 | 17 | 0 | 0.0 | 0.0 | 361.62 | 0.00 | 0.00 | 99 | 1022.7 |
| 20260902123217 | 17 | 0 | 0.0 | 0.0 | 361.62 | 0.00 | 0.00 | 98 | 1022.7 |
| 20260902122716 | 17 | 0 | 0.0 | 0.0 | 361.62 | 0.00 | 0.00 | 99 | 1022.9 |
| 20260902122216 | 17 | 0 | 0.0 | 0.0 | 361.62 | 0.00 | 0.00 | 99 | 1023.0 |
| 20260902121716 | 17 | 0 | 0.0 | 0.0 | 361.62 | 0.00 | 0.00 | 99 | 1022.9 |
| 20260902121216 | 17 | 0 | 0.0 | 0.0 | 361.62 | 0.00 | 0.00 | 99 | 1022.7 |
| 20260902120716 | 17 | 0 | 0.0 | 0.0 | 361.62 | 0.00 | 0.00 | 99 | 1022.8 |
| 20260902120216 | 16 | 0 | 0.0 | 0.0 | 361.62 | 0.00 | 0.00 | 99 | 1022.8 |
| 20260902115716 | 16 | 0 | 0.0 | 0.0 | 361.62 | 0.00 | 0.00 | 99 | 1022.8 |
| 20260902115216 | 16 | 0 | 0.0 | 0.0 | 361.62 | 0.00 | 0.00 | 99 | 1022.9 |
| 20260902114717 | 16 | 0 | 0.0 | 0.0 | 361.62 | 0.00 | 0.00 | 99 | 1023.0 |
| 20260902114216 | 16 | 0 | 0.0 | 0.0 | 361.62 | 0.00 | 0.00 | 99 | 1023.0 |
| 20260902113716 | 16 | 0 | 0.0 | 0.0 | 361.62 | 0.00 | 0.00 | 99 | 1022.9 |
| 20260902113216 | 16 | 0 | 0.0 | 0.0 | 361.62 | 0.00 | 0.00 | 99 | 1022.9 |
| 20260902112716 | 16 | 0 | 0.0 | 0.0 | 361.62 | 0.00 | 0.00 | 99 | 1023.1 |
| 20260902112216 | 16 | 0 | 0.0 | 0.0 | 361.62 | 0.00 | 0.00 | 99 | 1023.1 |
| 20260902111716 | 16 | 0 | 0.0 | 0.0 | 361.62 | 0.00 | 0.00 | 99 | 1022.9 |
| 20260902111216 | 16 | 0 | 0.0 | 0.0 | 361.62 | 0.00 | 0.00 | 99 | 1022.7 |
| 20260902110716 | 16 | 0 | 0.0 | 0.0 | 361.62 | 0.00 | 0.00 | 99 | 1022.6 |
| 20260902110216 | 16 | 0 | 0.0 | 0.0 | 361.62 | 0.00 | 0.00 | 99 | 1022.8 |
| 20260902105216 | 16 | 0 | 0.0 | 0.0 | 361.62 | 0.00 | 0.00 | 99 | 1022.7 |
| 20260902104717 | 16 | 0 | 0.0 | 0.0 | 361.62 | 0.00 | 0.00 | 99 | 1022.6 |
| 20260902104216 | 16 | 0 | 0.0 | 0.0 | 361.62 | 0.00 | 0.00 | 99 | 1022.5 |
| 20260902103216 | 16 | 0 | 0.0 | 0.0 | 361.62 | 0.00 | 0.00 | 98 | 1022.3 |
| 20260902102216 | 16 | 0 | 0.0 | 0.0 | 361.62 | 0.00 | 0.00 | 98 | 1022.2 |
| 20260902102130 | 16 | 0 | 0.0 | 0.0 | 361.62 | 0.00 | 0.00 | 98 | 1021.5 |
| 20260902101716 | 16 | 0 | 0.0 | 0.0 | 361.62 | 0.00 | 0.00 | 98 | 1022.2 |
| 20260902100216 | 16 | 0 | 0.0 | 0.0 | 361.62 | 0.00 | 0.00 | 98 | 1022.1 |
| 20260902095716 | 16 | 0 | 0.0 | 0.0 | 361.62 | 0.00 | 0.00 | 98 | 1022.1 |
| 20260902094723 | 16 | 0 | 0.0 | 0.0 | 361.62 | 0.00 | 0.00 | 98 | 1021.9 |
| 20260902093716 | 16 | 0 | 0.0 | 0.0 | 361.62 | 0.00 | 0.00 | 98 | 1021.8 |
| 20260902093216 | 16 | 0 | 0.0 | 0.0 | 361.62 | 0.00 | 0.00 | 98 | 1021.8 |
| 20260902092716 | 16 | 0 | 0.0 | 0.0 | 361.62 | 0.00 | 0.00 | 98 | 1021.8 |
| 20260902092216 | 16 | 0 | 0.0 | 0.0 | 361.62 | 0.00 | 0.00 | 98 | 1021.7 |
| 20260902091716 | 16 | 0 | 0.0 | 0.0 | 361.62 | 0.00 | 0.00 | 98 | 1021.7 |
| 20260902091215 | 16 | 0 | 0.0 | 0.0 | 361.62 | 0.00 | 0.00 | 98 | 1021.7 |
| 20260902090715 | 16 | 0 | 0.0 | 0.0 | 361.62 | 0.00 | 0.00 | 98 | 1021.6 |
| 20260902090217 | 16 | 0 | 0.0 | 0.0 | 361.62 | 0.00 | 0.00 | 98 | 1021.6 |
| 20260902085215 | 16 | 0 | 0.0 | 0.0 | 361.62 | 0.00 | 0.00 | 98 | 1021.5 |
| 20260902084716 | 16 | 0 | 0.0 | 0.0 | 361.62 | 0.00 | 0.00 | 98 | 1021.4 |
| 20260902084216 | 16 | 0 | 0.0 | 0.0 | 361.62 | 0.00 | 0.00 | 98 | 1021.4 |
| 20260902083217 | 16 | 0 | 0.0 | 0.0 | 361.62 | 0.00 | 0.00 | 98 | 1021.4 |
| 20260902082215 | 16 | 0 | 0.0 | 0.0 | 361.62 | 0.00 | 0.00 | 98 | 1021.4 |
| 20260902081716 | 16 | 63 | 0.0 | 3.2 | 361.62 | 0.00 | 0.00 | 98 | 1021.4 |
| 20260902080718 | 16 | 0 | 0.0 | 0.0 | 361.62 | 0.00 | 0.00 | 98 | 1021.6 |
| 20260902080216 | 16 | 0 | 0.0 | 0.0 | 361.62 | 0.00 | 0.00 | 98 | 1021.5 |
| 20260902074721 | 16 | 0 | 0.0 | 0.0 | 361.62 | 0.00 | 0.00 | 98 | 1021.6 |
| 20260902073716 | 16 | 0 | 0.0 | 0.0 | 361.62 | 0.00 | 0.00 | 98 | 1021.6 |
| 20260902073222 | 16 | 0 | 0.0 | 0.0 | 361.62 | 0.00 | 0.00 | 98 | 1021.7 |
| 20260902072215 | 16 | 0 | 0.0 | 0.0 | 361.62 | 0.00 | 0.00 | 98 | 1021.9 |
| 20260902071723 | 16 | 0 | 0.0 | 0.0 | 361.62 | 0.00 | 0.00 | 98 | 1021.8 |
| 20260902070715 | 16 | 0 | 0.0 | 0.0 | 361.62 | 0.00 | 0.00 | 98 | 1021.7 |
| 20260902070218 | 16 | 0 | 0.0 | 0.0 | 361.62 | 0.00 | 0.00 | 98 | 1021.6 |
| 20260902065215 | 16 | 0 | 0.0 | 0.0 | 361.62 | 0.00 | 0.00 | 98 | 1021.4 |
| 20260902064721 | 16 | 0 | 0.0 | 0.0 | 361.62 | 0.00 | 0.00 | 98 | 1021.4 |
| 20260902063219 | 16 | 0 | 0.0 | 0.0 | 361.62 | 0.00 | 0.00 | 98 | 1021.4 |
| 20260902061717 | 16 | 0 | 0.0 | 0.0 | 361.62 | 0.00 | 0.00 | 98 | 1021.6 |
| 20260902060216 | 16 | 0 | 0.0 | 0.0 | 361.62 | 0.00 | 0.00 | 98 | 1021.5 |
| 20260902055716 | 16 | 0 | 0.0 | 0.0 | 361.62 | 0.00 | 0.00 | 98 | 1021.5 |
| 20260902054719 | 16 | 0 | 0.0 | 0.0 | 361.62 | 0.00 | 0.00 | 98 | 1021.5 |
| 20260902053218 | 16 | 0 | 0.0 | 0.0 | 361.62 | 0.00 | 0.00 | 98 | 1021.4 |
| 20260902051720 | 16 | 0 | 0.0 | 0.0 | 361.62 | 0.00 | 0.00 | 98 | 1021.4 |
| 20260902050216 | 16 | 0 | 0.0 | 0.0 | 361.62 | 0.00 | 0.00 | 98 | 1021.1 |
| 20260902045215 | 16 | 0 | 0.0 | 0.0 | 361.62 | 0.00 | 0.00 | 98 | 1021.0 |
| 20260902044719 | 16 | 0 | 0.0 | 0.0 | 361.62 | 0.00 | 0.00 | 97 | 1020.9 |
| 20260902043716 | 16 | 0 | 0.0 | 0.0 | 361.62 | 0.00 | 0.00 | 98 | 1020.7 |
| 20260902043217 | 16 | 0 | 0.0 | 0.0 | 361.62 | 0.00 | 0.00 | 98 | 1020.6 |
| 20260902042215 | 16 | 0 | 0.0 | 0.0 | 361.62 | 0.00 | 0.00 | 98 | 1020.5 |
| 20260902041723 | 16 | 0 | 0.0 | 0.0 | 361.62 | 0.00 | 0.00 | 97 | 1020.6 |
| 20260902040216 | 16 | 0 | 0.0 | 0.0 | 361.62 | 0.00 | 0.00 | 98 | 1020.5 |
| 20260902035215 | 16 | 0 | 0.0 | 0.0 | 361.62 | 0.00 | 1.02 | 97 | 1020.5 |
| 20260902034722 | 16 | 0 | 0.0 | 0.0 | 361.62 | 0.00 | 1.02 | 97 | 1020.3 |
| 20260902033216 | 16 | 0 | 0.0 | 0.0 | 361.62 | 0.00 | 1.02 | 97 | 1019.7 |
| 20260902032215 | 16 | 0 | 0.0 | 0.0 | 361.62 | 0.00 | 1.02 | 97 | 1019.8 |
| 20260902031718 | 16 | 0 | 0.0 | 0.0 | 361.62 | 0.00 | 1.02 | 97 | 1020.0 |
| 20260902031216 | 16 | 0 | 0.0 | 0.0 | 361.62 | 0.00 | 1.02 | 97 | 1020.0 |
| 20260902030216 | 16 | 0 | 0.0 | 0.0 | 361.62 | 0.00 | 1.02 | 97 | 1020.1 |
| 20260902025716 | 16 | 0 | 0.0 | 0.0 | 361.62 | 0.00 | 1.02 | 97 | 1020.1 |
| 20260902025216 | 16 | 0 | 0.0 | 0.0 | 361.62 | 0.00 | 1.02 | 97 | 1020.1 |
| 20260902024719 | 16 | 0 | 0.0 | 0.0 | 361.62 | 0.00 | 1.02 | 97 | 1020.0 |
| 20260902023217 | 16 | 0 | 0.0 | 0.0 | 361.62 | 0.00 | 1.02 | 97 | 1020.2 |
| 20260902022215 | 16 | 0 | 0.0 | 0.0 | 361.62 | 0.00 | 1.02 | 97 | 1020.3 |
| 20260902021723 | 16 | 0 | 0.0 | 0.0 | 361.62 | 0.00 | 1.02 | 97 | 1020.3 |
| 20260902021215 | 16 | 0 | 0.0 | 0.0 | 361.62 | 0.00 | 1.02 | 97 | 1020.3 |
| 20260902020715 | 16 | 0 | 0.0 | 0.0 | 361.62 | 0.00 | 1.02 | 97 | 1020.3 |
| 20260902020218 | 16 | 0 | 0.0 | 0.0 | 361.62 | 0.00 | 1.02 | 97 | 1020.4 |
| 20260902015715 | 16 | 0 | 0.0 | 0.0 | 361.62 | 0.00 | 1.02 | 97 | 1020.4 |
| 20260902015215 | 16 | 0 | 0.0 | 0.0 | 361.62 | 0.00 | 1.02 | 97 | 1020.4 |
| 20260902014719 | 16 | 0 | 0.0 | 0.0 | 361.62 | 0.00 | 1.02 | 97 | 1020.2 |
| 20260902014215 | 16 | 0 | 0.0 | 0.0 | 361.62 | 0.00 | 1.02 | 97 | 1020.2 |